Location: Albuquerque Trailhead
(34.7934°N, 106.3736°W)
Time: 10:11:48
(UTC+00:00)

CAS-4A - Pass Details

Date: 28 March 2023
Orbit: 506 x 523 km, 43.0° (Epoch: 28 May)

Event Time Altitude Azimuth Distance (km) Brightness Sun altitude
Exits shadow 10:02:13 - 90° (E) 1,798 ? -34.8°
Enters shadow 11:01:37 -66° 242° (WSW) 12,181 ? -24.1°
Maximum altitude 11:38:31 74° 333° (NNW) 543 ? -16.9°
